owner,sensor,date,latitude,longitude,vertical_datum,mass_concentration_of_oxygen_in_sea_water,qcFlag 
DISL,ioos:station:DISL:DISL:1,2019-02-01T00:30:00Z,30.2513,-88.0778,2.332,7.17,1111122 
DISL,ioos:station:DISL:DISL:1,2019-02-01T01:30:00Z,30.2513,-88.0778,2.36,8.6,1111122 
DISL,ioos:station:DISL:DISL:1,2019-02-01T02:30:00Z,30.2513,-88.0778,2.35,10.19,1111122 
DISL,ioos:station:DISL:DISL:1,2019-02-01T03:30:00Z,30.2513,-88.0778,2.31,10.48,1111122 
DISL,ioos:station:DISL:DISL:1,2019-02-01T04:30:00Z,30.2513,-88.0778,2.268,10.51,1111122 
DISL,ioos:station:DISL:DISL:1,2019-02-01T05:30:00Z,30.2513,-88.0778,2.226,10.64,1111122 
DISL,ioos:station:DISL:DISL:1,2019-02-01T06:30:00Z,30.2513,-88.0778,2.173,10.59,1111122 
DISL,ioos:station:DISL:DISL:1,2019-02-01T07:30:00Z,30.2513,-88.0778,2.12,10.56,1111122 
DISL,ioos:station:DISL:DISL:1,2019-02-01T08:30:00Z,30.2513,-88.0778,2.069,10.55,1111122 
DISL,ioos:station:DISL:DISL:1,2019-02-01T09:30:00Z,30.2513,-88.0778,2.019,10.55,1111122 
DISL,ioos:station:DISL:DISL:1,2019-02-01T10:30:00Z,30.2513,-88.0778,1.975,10.53,1111122 
DISL,ioos:station:DISL:DISL:1,2019-02-01T11:30:00Z,30.2513,-88.0778,1.948,10.61,1111122 
DISL,ioos:station:DISL:DISL:1,2019-02-01T12:30:00Z,30.2513,-88.0778,1.928,10.67,1111122 
DISL,ioos:station:DISL:DISL:1,2019-02-01T13:30:00Z,30.2513,-88.0778,1.943,10.69,1111122 
DISL,ioos:station:DISL:DISL:1,2019-02-01T14:30:00Z,30.2513,-88.0778,1.954,10.72,1111122 
DISL,ioos:station:DISL:DISL:1,2019-02-01T15:30:00Z,30.2513,-88.0778,1.981,10.74,1111122 
DISL,ioos:station:DISL:DISL:1,2019-02-01T16:30:00Z,30.2513,-88.0778,2.019,10.6,1111122 
DISL,ioos:station:DISL:DISL:1,2019-02-01T17:30:00Z,30.2513,-88.0778,2.073,10.35,1111122 
DISL,ioos:station:DISL:DISL:1,2019-02-01T18:30:00Z,30.2513,-88.0778,2.125,10.35,1111122 
DISL,ioos:station:DISL:DISL:1,2019-02-01T19:30:00Z,30.2513,-88.0778,2.202,10.45,1111122 
DISL,ioos:station:DISL:DISL:1,2019-02-01T20:30:00Z,30.2513,-88.0778,2.248,8.88,1111122 
DISL,ioos:station:DISL:DISL:1,2019-02-01T21:30:00Z,30.2513,-88.0778,2.3,8.04,1111122 
DISL,ioos:station:DISL:DISL:1,2019-02-01T22:30:00Z,30.2513,-88.0778,2.369,7.87,1111122 
DISL,ioos:station:DISL:DISL:1,2019-02-01T23:30:00Z,30.2513,-88.0778,2.394,7.82,1111122 
DISL,ioos:station:DISL:DISL:1,2019-02-02T00:30:00Z,30.2513,-88.0778,2.417,7.79,1111122 
DISL,ioos:station:DISL:DISL:1,2019-02-02T01:30:00Z,30.2513,-88.0778,2.448,9.38,1111122 
DISL,ioos:station:DISL:DISL:1,2019-02-02T02:30:00Z,30.2513,-88.0778,2.451,10.15,1111122 
DISL,ioos:station:DISL:DISL:1,2019-02-02T03:30:00Z,30.2513,-88.0778,2.42,10.3,1111122 
DISL,ioos:station:DISL:DISL:1,2019-02-02T04:30:00Z,30.2513,-88.0778,2.38,10.0,1111122 
DISL,ioos:station:DISL:DISL:1,2019-02-02T05:30:00Z,30.2513,-88.0778,2.336,10.5,1111122 
DISL,ioos:station:DISL:DISL:1,2019-02-02T06:30:00Z,30.2513,-88.0778,2.27,10.78,1111122 
DISL,ioos:station:DISL:DISL:1,2019-02-02T07:30:00Z,30.2513,-88.0778,2.206,10.79,1111122 
DISL,ioos:station:DISL:DISL:1,2019-02-02T08:30:00Z,30.2513,-88.0778,2.14,10.77,1111122 
DISL,ioos:station:DISL:DISL:1,2019-02-02T09:30:00Z,30.2513,-88.0778,2.076,10.77,1111122 
DISL,ioos:station:DISL:DISL:1,2019-02-02T10:30:00Z,30.2513,-88.0778,2.027,10.76,1111122 
DISL,ioos:station:DISL:DISL:1,2019-02-02T11:30:00Z,30.2513,-88.0778,1.993,10.78,1111122 
DISL,ioos:station:DISL:DISL:1,2019-02-02T12:30:00Z,30.2513,-88.0778,1.959,10.78,1111122 
DISL,ioos:station:DISL:DISL:1,2019-02-02T13:30:00Z,30.2513,-88.0778,1.956,10.78,1111122 
DISL,ioos:station:DISL:DISL:1,2019-02-02T14:30:00Z,30.2513,-88.0778,1.958,10.77,1111122 
DISL,ioos:station:DISL:DISL:1,2019-02-02T15:30:00Z,30.2513,-88.0778,1.976,10.74,1111122 
DISL,ioos:station:DISL:DISL:1,2019-02-02T16:30:00Z,30.2513,-88.0778,2.0,10.69,1111122 
DISL,ioos:station:DISL:DISL:1,2019-02-02T17:30:00Z,30.2513,-88.0778,2.016,10.73,1111122 
DISL,ioos:station:DISL:DISL:1,2019-02-02T18:30:00Z,30.2513,-88.0778,2.053,10.67,1111122 
DISL,ioos:station:DISL:DISL:1,2019-02-02T19:30:00Z,30.2513,-88.0778,2.118,10.48,1111122 
DISL,ioos:station:DISL:DISL:1,2019-02-02T20:30:00Z,30.2513,-88.0778,2.162,10.57,1111122 
DISL,ioos:station:DISL:DISL:1,2019-02-02T21:30:00Z,30.2513,-88.0778,2.227,10.0,1111122 
DISL,ioos:station:DISL:DISL:1,2019-02-02T22:30:00Z,30.2513,-88.0778,2.288,8.87,1111122 
DISL,ioos:station:DISL:DISL:1,2019-02-02T23:30:00Z,30.2513,-88.0778,2.35,8.01,1111122 
DISL,ioos:station:DISL:DISL:1,2019-02-03T00:30:00Z,30.2513,-88.0778,2.387,7.65,1111122 
DISL,ioos:station:DISL:DISL:1,2019-02-03T01:30:00Z,30.2513,-88.0778,2.417,7.54,1111122 
DISL,ioos:station:DISL:DISL:1,2019-02-03T02:30:00Z,30.2513,-88.0778,2.438,10.07,1111122 
DISL,ioos:station:DISL:DISL:1,2019-02-03T03:30:00Z,30.2513,-88.0778,2.435,10.21,1111122 
DISL,ioos:station:DISL:DISL:1,2019-02-03T04:30:00Z,30.2513,-88.0778,2.409,10.48,1111122 
DISL,ioos:station:DISL:DISL:1,2019-02-03T05:30:00Z,30.2513,-88.0778,2.371,10.43,1111122 
DISL,ioos:station:DISL:DISL:1,2019-02-03T06:30:00Z,30.2513,-88.0778,2.311,10.39,1111122 
DISL,ioos:station:DISL:DISL:1,2019-02-03T07:30:00Z,30.2513,-88.0778,2.229,10.32,1111122 
DISL,ioos:station:DISL:DISL:1,2019-02-03T08:30:00Z,30.2513,-88.0778,2.167,10.69,1111122 
DISL,ioos:station:DISL:DISL:1,2019-02-03T09:30:00Z,30.2513,-88.0778,2.133,10.71,1111122 
DISL,ioos:station:DISL:DISL:1,2019-02-03T10:30:00Z,30.2513,-88.0778,2.07,10.67,1111122 
DISL,ioos:station:DISL:DISL:1,2019-02-03T11:30:00Z,30.2513,-88.0778,2.023,10.63,1111122 
DISL,ioos:station:DISL:DISL:1,2019-02-03T12:30:00Z,30.2513,-88.0778,1.99,10.59,1111122 
DISL,ioos:station:DISL:DISL:1,2019-02-03T13:30:00Z,30.2513,-88.0778,1.959,10.59,1111122 
DISL,ioos:station:DISL:DISL:1,2019-02-03T14:30:00Z,30.2513,-88.0778,1.962,10.56,1111122 
DISL,ioos:station:DISL:DISL:1,2019-02-03T15:30:00Z,30.2513,-88.0778,1.968,10.53,1111122 
DISL,ioos:station:DISL:DISL:1,2019-02-03T16:30:00Z,30.2513,-88.0778,1.992,10.54,1111122 
DISL,ioos:station:DISL:DISL:1,2019-02-03T17:30:00Z,30.2513,-88.0778,2.028,10.55,1111122 
DISL,ioos:station:DISL:DISL:1,2019-02-03T18:30:00Z,30.2513,-88.0778,2.048,10.5,1111122 
DISL,ioos:station:DISL:DISL:1,2019-02-03T19:30:00Z,30.2513,-88.0778,2.083,10.51,1111122 
DISL,ioos:station:DISL:DISL:1,2019-02-03T20:30:00Z,30.2513,-88.0778,2.142,10.33,1111122 
DISL,ioos:station:DISL:DISL:1,2019-02-03T21:30:00Z,30.2513,-88.0778,2.187,10.36,1111122 
DISL,ioos:station:DISL:DISL:1,2019-02-03T23:00:00Z,30.2513,-88.0778,2.252,9.68,1111122 
DISL,ioos:station:DISL:DISL:1,2019-02-03T23:30:00Z,30.2513,-88.0778,2.278,8.79,1111122 
DISL,ioos:station:DISL:DISL:1,2019-02-04T00:30:00Z,30.2513,-88.0778,2.327,8.18,1111122 
DISL,ioos:station:DISL:DISL:1,2019-02-04T01:30:00Z,30.2513,-88.0778,2.368,7.9,1111122 
DISL,ioos:station:DISL:DISL:1,2019-02-04T02:30:00Z,30.2513,-88.0778,2.413,9.4,1111122 
DISL,ioos:station:DISL:DISL:1,2019-02-04T03:30:00Z,30.2513,-88.0778,2.433,9.92,1111122 
DISL,ioos:station:DISL:DISL:1,2019-02-04T04:30:00Z,30.2513,-88.0778,2.419,10.29,1111122 
DISL,ioos:station:DISL:DISL:1,2019-02-04T05:30:00Z,30.2513,-88.0778,2.39,10.29,1111122 
DISL,ioos:station:DISL:DISL:1,2019-02-04T06:30:00Z,30.2513,-88.0778,2.345,9.94,1111122 
DISL,ioos:station:DISL:DISL:1,2019-02-04T07:30:00Z,30.2513,-88.0778,2.3,10.37,1111122 
DISL,ioos:station:DISL:DISL:1,2019-02-04T08:30:00Z,30.2513,-88.0778,2.222,10.55,1111122 
DISL,ioos:station:DISL:DISL:1,2019-02-04T09:30:00Z,30.2513,-88.0778,2.16,10.46,1111122 
DISL,ioos:station:DISL:DISL:1,2019-02-04T10:30:00Z,30.2513,-88.0778,2.107,10.41,1111122 
DISL,ioos:station:DISL:DISL:1,2019-02-04T11:30:00Z,30.2513,-88.0778,2.059,10.42,1111122 
DISL,ioos:station:DISL:DISL:1,2019-02-04T12:30:00Z,30.2513,-88.0778,2.03,10.42,1111122 
DISL,ioos:station:DISL:DISL:1,2019-02-04T13:30:00Z,30.2513,-88.0778,2.005,10.45,1111122 
DISL,ioos:station:DISL:DISL:1,2019-02-04T14:30:00Z,30.2513,-88.0778,2.005,10.48,1111122 
DISL,ioos:station:DISL:DISL:1,2019-02-04T15:30:00Z,30.2513,-88.0778,1.997,10.56,1111122 
DISL,ioos:station:DISL:DISL:1,2019-02-04T16:30:00Z,30.2513,-88.0778,2.014,10.56,1111122 
DISL,ioos:station:DISL:DISL:1,2019-02-04T17:30:00Z,30.2513,-88.0778,2.038,10.52,1111122 
DISL,ioos:station:DISL:DISL:1,2019-02-04T18:30:00Z,30.2513,-88.0778,2.052,10.5,1111122 
DISL,ioos:station:DISL:DISL:1,2019-02-04T19:30:00Z,30.2513,-88.0778,2.088,10.44,1111122 
DISL,ioos:station:DISL:DISL:1,2019-02-04T20:30:00Z,30.2513,-88.0778,2.126,10.31,1111122 
DISL,ioos:station:DISL:DISL:1,2019-02-04T21:30:00Z,30.2513,-88.0778,2.165,10.27,1111122 
DISL,ioos:station:DISL:DISL:1,2019-02-04T22:30:00Z,30.2513,-88.0778,2.202,9.57,1111122 
DISL,ioos:station:DISL:DISL:1,2019-02-04T23:30:00Z,30.2513,-88.0778,2.274,8.6,1111122 
DISL,ioos:station:DISL:DISL:1,2019-02-05T00:30:00Z,30.2513,-88.0778,2.305,8.29,1111122 
DISL,ioos:station:DISL:DISL:1,2019-02-05T01:30:00Z,30.2513,-88.0778,2.347,8.0,1111122 
DISL,ioos:station:DISL:DISL:1,2019-02-05T02:30:00Z,30.2513,-88.0778,2.373,8.09,1111122 
DISL,ioos:station:DISL:DISL:1,2019-02-05T03:30:00Z,30.2513,-88.0778,2.405,8.32,1111122 
DISL,ioos:station:DISL:DISL:1,2019-02-05T04:30:00Z,30.2513,-88.0778,2.39,8.27,1111122 
DISL,ioos:station:DISL:DISL:1,2019-02-05T05:30:00Z,30.2513,-88.0778,2.366,8.13,1111122 
DISL,ioos:station:DISL:DISL:1,2019-02-05T06:30:00Z,30.2513,-88.0778,2.323,8.15,1111122 
DISL,ioos:station:DISL:DISL:1,2019-02-05T07:30:00Z,30.2513,-88.0778,2.286,8.42,1111122 
DISL,ioos:station:DISL:DISL:1,2019-02-05T08:30:00Z,30.2513,-88.0778,2.227,10.04,1111122 
DISL,ioos:station:DISL:DISL:1,2019-02-05T09:30:00Z,30.2513,-88.0778,2.17,10.06,1111122 
DISL,ioos:station:DISL:DISL:1,2019-02-05T10:30:00Z,30.2513,-88.0778,2.108,10.04,1111122 
DISL,ioos:station:DISL:DISL:1,2019-02-05T11:30:00Z,30.2513,-88.0778,2.066,10.07,1111122 
DISL,ioos:station:DISL:DISL:1,2019-02-05T12:30:00Z,30.2513,-88.0778,2.022,10.12,1111122 
DISL,ioos:station:DISL:DISL:1,2019-02-05T13:30:00Z,30.2513,-88.0778,2.01,10.18,1111122 
DISL,ioos:station:DISL:DISL:1,2019-02-05T15:00:00Z,30.2513,-88.0778,1.993,10.21,1111122 
DISL,ioos:station:DISL:DISL:1,2019-02-05T16:00:00Z,30.2513,-88.0778,2.001,10.17,1111122 
DISL,ioos:station:DISL:DISL:1,2019-02-05T17:00:00Z,30.2513,-88.0778,2.02,10.05,1111122 
DISL,ioos:station:DISL:DISL:1,2019-02-05T18:00:00Z,30.2513,-88.0778,2.048,9.76,1111122 
DISL,ioos:station:DISL:DISL:1,2019-02-05T19:00:00Z,30.2513,-88.0778,2.088,10.11,1111122 
DISL,ioos:station:DISL:DISL:1,2019-02-05T20:00:00Z,30.2513,-88.0778,2.1,9.96,1111122 
DISL,ioos:station:DISL:DISL:1,2019-02-05T21:00:00Z,30.2513,-88.0778,2.159,10.1,1111122 
DISL,ioos:station:DISL:DISL:1,2019-02-05T22:00:00Z,30.2513,-88.0778,2.192,10.11,1111122 
DISL,ioos:station:DISL:DISL:1,2019-02-05T23:00:00Z,30.2513,-88.0778,2.241,9.85,1111122 
DISL,ioos:station:DISL:DISL:1,2019-02-05T23:30:00Z,30.2513,-88.0778,2.263,9.51,1111122 
DISL,ioos:station:DISL:DISL:1,2019-02-06T00:30:00Z,30.2513,-88.0778,2.282,7.6,1111122 
DISL,ioos:station:DISL:DISL:1,2019-02-06T01:30:00Z,30.2513,-88.0778,2.328,7.14,1111122 
DISL,ioos:station:DISL:DISL:1,2019-02-06T02:30:00Z,30.2513,-88.0778,2.333,7.06,1111122 
DISL,ioos:station:DISL:DISL:1,2019-02-06T03:30:00Z,30.2513,-88.0778,2.363,7.46,1111122 
DISL,ioos:station:DISL:DISL:1,2019-02-06T04:30:00Z,30.2513,-88.0778,2.386,8.47,1111122 
DISL,ioos:station:DISL:DISL:1,2019-02-06T05:30:00Z,30.2513,-88.0778,2.354,8.36,1111122 
DISL,ioos:station:DISL:DISL:1,2019-02-06T06:30:00Z,30.2513,-88.0778,2.324,7.91,1111122 
DISL,ioos:station:DISL:DISL:1,2019-02-06T07:30:00Z,30.2513,-88.0778,2.279,7.54,1111122 
DISL,ioos:station:DISL:DISL:1,2019-02-06T08:30:00Z,30.2513,-88.0778,2.231,9.05,1111122 
DISL,ioos:station:DISL:DISL:1,2019-02-06T09:30:00Z,30.2513,-88.0778,2.182,9.35,1111122 
DISL,ioos:station:DISL:DISL:1,2019-02-06T10:30:00Z,30.2513,-88.0778,2.134,9.72,1111122 
DISL,ioos:station:DISL:DISL:1,2019-02-06T12:00:00Z,30.2513,-88.0778,2.07,9.82,1111122 
DISL,ioos:station:DISL:DISL:1,2019-02-06T13:00:00Z,30.2513,-88.0778,2.032,9.79,1111122 
DISL,ioos:station:DISL:DISL:1,2019-02-06T14:00:00Z,30.2513,-88.0778,2.016,9.87,1111122 
DISL,ioos:station:DISL:DISL:1,2019-02-06T15:00:00Z,30.2513,-88.0778,1.998,10.01,1111122 
DISL,ioos:station:DISL:DISL:1,2019-02-06T16:00:00Z,30.2513,-88.0778,2.012,9.86,1111122 
DISL,ioos:station:DISL:DISL:1,2019-02-06T17:00:00Z,30.2513,-88.0778,2.0,9.87,1111122 
DISL,ioos:station:DISL:DISL:1,2019-02-06T18:00:00Z,30.2513,-88.0778,2.018,9.38,1111122 
DISL,ioos:station:DISL:DISL:1,2019-02-06T19:00:00Z,30.2513,-88.0778,2.053,9.36,1111122 
DISL,ioos:station:DISL:DISL:1,2019-02-06T20:00:00Z,30.2513,-88.0778,2.078,9.37,1111122 
DISL,ioos:station:DISL:DISL:1,2019-02-06T21:00:00Z,30.2513,-88.0778,2.115,9.49,1111122 
DISL,ioos:station:DISL:DISL:1,2019-02-06T23:00:00Z,30.2513,-88.0778,2.156,9.89,1111122 
DISL,ioos:station:DISL:DISL:1,2019-02-06T23:30:00Z,30.2513,-88.0778,2.197,10.11,1111122 
DISL,ioos:station:DISL:DISL:1,2019-02-07T00:30:00Z,30.2513,-88.0778,2.219,9.92,1111122 
DISL,ioos:station:DISL:DISL:1,2019-02-07T01:30:00Z,30.2513,-88.0778,2.23,8.38,1111122 
DISL,ioos:station:DISL:DISL:1,2019-02-07T02:30:00Z,30.2513,-88.0778,2.265,7.26,1111122 
DISL,ioos:station:DISL:DISL:1,2019-02-07T03:30:00Z,30.2513,-88.0778,2.329,7.05,1111122 
DISL,ioos:station:DISL:DISL:1,2019-02-07T04:30:00Z,30.2513,-88.0778,2.314,7.8,1111122 
DISL,ioos:station:DISL:DISL:1,2019-02-07T05:30:00Z,30.2513,-88.0778,2.337,7.82,1111122 
DISL,ioos:station:DISL:DISL:1,2019-02-07T06:30:00Z,30.2513,-88.0778,2.323,7.87,1111122 
DISL,ioos:station:DISL:DISL:1,2019-02-07T08:00:00Z,30.2513,-88.0778,2.265,7.82,1111122 
DISL,ioos:station:DISL:DISL:1,2019-02-07T08:30:00Z,30.2513,-88.0778,2.238,7.92,1111122 
DISL,ioos:station:DISL:DISL:1,2019-02-07T09:30:00Z,30.2513,-88.0778,2.207,9.05,1111122 
DISL,ioos:station:DISL:DISL:1,2019-02-07T10:30:00Z,30.2513,-88.0778,2.143,9.14,1111122 
DISL,ioos:station:DISL:DISL:1,2019-02-07T11:30:00Z,30.2513,-88.0778,2.102,9.32,1111122 
DISL,ioos:station:DISL:DISL:1,2019-02-07T12:30:00Z,30.2513,-88.0778,2.056,9.44,1111122 
DISL,ioos:station:DISL:DISL:1,2019-02-07T13:30:00Z,30.2513,-88.0778,2.021,9.77,1111122 
DISL,ioos:station:DISL:DISL:1,2019-02-07T15:00:00Z,30.2513,-88.0778,2.009,10.06,1111122 
DISL,ioos:station:DISL:DISL:1,2019-02-07T15:30:00Z,30.2513,-88.0778,1.995,10.07,1111122 
DISL,ioos:station:DISL:DISL:1,2019-02-07T17:00:00Z,30.2513,-88.0778,2.012,9.63,1111122 
DISL,ioos:station:DISL:DISL:1,2019-02-07T18:00:00Z,30.2513,-88.0778,2.021,9.48,1111122 
DISL,ioos:station:DISL:DISL:1,2019-02-07T19:00:00Z,30.2513,-88.0778,2.036,9.5,1111122 
DISL,ioos:station:DISL:DISL:1,2019-02-07T20:00:00Z,30.2513,-88.0778,2.061,9.56,1111122 
DISL,ioos:station:DISL:DISL:1,2019-02-07T21:00:00Z,30.2513,-88.0778,2.091,9.73,1111122 
DISL,ioos:station:DISL:DISL:1,2019-02-07T22:00:00Z,30.2513,-88.0778,2.105,10.0,1111122 
DISL,ioos:station:DISL:DISL:1,2019-02-07T23:00:00Z,30.2513,-88.0778,2.123,9.63,1111122 
DISL,ioos:station:DISL:DISL:1,2019-02-07T23:30:00Z,30.2513,-88.0778,2.136,9.49,1111122 
DISL,ioos:station:DISL:DISL:1,2019-02-08T00:30:00Z,30.2513,-88.0778,2.167,9.0,1111122 
DISL,ioos:station:DISL:DISL:1,2019-02-08T01:30:00Z,30.2513,-88.0778,2.204,8.74,1111122 
DISL,ioos:station:DISL:DISL:1,2019-02-08T02:30:00Z,30.2513,-88.0778,2.224,8.38,1111122 
DISL,ioos:station:DISL:DISL:1,2019-02-08T03:30:00Z,30.2513,-88.0778,2.255,7.72,1111122 
DISL,ioos:station:DISL:DISL:1,2019-02-08T04:30:00Z,30.2513,-88.0778,2.29,7.81,1111122 
DISL,ioos:station:DISL:DISL:1,2019-02-08T05:30:00Z,30.2513,-88.0778,2.328,8.91,1111122 
DISL,ioos:station:DISL:DISL:1,2019-02-08T06:30:00Z,30.2513,-88.0778,2.334,9.13,1111122 
DISL,ioos:station:DISL:DISL:1,2019-02-08T07:30:00Z,30.2513,-88.0778,2.337,9.15,1111122 
DISL,ioos:station:DISL:DISL:1,2019-02-08T08:30:00Z,30.2513,-88.0778,2.299,9.04,1111122 
DISL,ioos:station:DISL:DISL:1,2019-02-08T09:30:00Z,30.2513,-88.0778,2.257,9.25,1111122 
DISL,ioos:station:DISL:DISL:1,2019-02-08T10:30:00Z,30.2513,-88.0778,2.196,9.19,1111122 
DISL,ioos:station:DISL:DISL:1,2019-02-08T11:30:00Z,30.2513,-88.0778,2.131,9.42,1111122 
DISL,ioos:station:DISL:DISL:1,2019-02-08T12:30:00Z,30.2513,-88.0778,2.067,9.54,1111122 
DISL,ioos:station:DISL:DISL:1,2019-02-08T13:30:00Z,30.2513,-88.0778,2.047,9.71,1111122 
DISL,ioos:station:DISL:DISL:1,2019-02-08T14:30:00Z,30.2513,-88.0778,2.054,9.76,1111122 
DISL,ioos:station:DISL:DISL:1,2019-02-08T16:00:00Z,30.2513,-88.0778,1.961,9.89,1111122 
DISL,ioos:station:DISL:DISL:1,2019-02-08T16:30:00Z,30.2513,-88.0778,1.957,9.88,1111122 
DISL,ioos:station:DISL:DISL:1,2019-02-08T17:30:00Z,30.2513,-88.0778,1.919,10.01,1111122 
DISL,ioos:station:DISL:DISL:1,2019-02-08T18:30:00Z,30.2513,-88.0778,1.904,9.98,1111122 
DISL,ioos:station:DISL:DISL:1,2019-02-08T20:00:00Z,30.2513,-88.0778,1.912,10.0,1111122 
DISL,ioos:station:DISL:DISL:1,2019-02-08T21:00:00Z,30.2513,-88.0778,1.911,10.05,1111122 
DISL,ioos:station:DISL:DISL:1,2019-02-08T22:00:00Z,30.2513,-88.0778,1.88,10.24,1111122 
DISL,ioos:station:DISL:DISL:1,2019-02-08T23:00:00Z,30.2513,-88.0778,1.914,10.2,1111122 
DISL,ioos:station:DISL:DISL:1,2019-02-08T23:30:00Z,30.2513,-88.0778,1.951,10.19,1111122 
DISL,ioos:station:DISL:DISL:1,2019-02-09T00:30:00Z,30.2513,-88.0778,1.974,10.16,1111122 
DISL,ioos:station:DISL:DISL:1,2019-02-09T01:30:00Z,30.2513,-88.0778,2.003,10.15,1111122 
DISL,ioos:station:DISL:DISL:1,2019-02-09T02:30:00Z,30.2513,-88.0778,2.007,10.37,1111122 
DISL,ioos:station:DISL:DISL:1,2019-02-09T03:30:00Z,30.2513,-88.0778,2.021,10.09,1111122 
DISL,ioos:station:DISL:DISL:1,2019-02-09T04:30:00Z,30.2513,-88.0778,2.02,10.06,1111122 
DISL,ioos:station:DISL:DISL:1,2019-02-09T05:30:00Z,30.2513,-88.0778,1.909,10.17,1111122 
DISL,ioos:station:DISL:DISL:1,2019-02-09T06:30:00Z,30.2513,-88.0778,2.014,10.11,1111122 
DISL,ioos:station:DISL:DISL:1,2019-02-09T07:30:00Z,30.2513,-88.0778,1.99,10.22,1111122 
DISL,ioos:station:DISL:DISL:1,2019-02-09T08:30:00Z,30.2513,-88.0778,1.993,10.24,1111122 
DISL,ioos:station:DISL:DISL:1,2019-02-09T09:30:00Z,30.2513,-88.0778,1.97,10.18,1111122 
DISL,ioos:station:DISL:DISL:1,2019-02-09T10:30:00Z,30.2513,-88.0778,1.94,10.5,1111122 
DISL,ioos:station:DISL:DISL:1,2019-02-09T11:30:00Z,30.2513,-88.0778,1.907,10.56,1111122 
DISL,ioos:station:DISL:DISL:1,2019-02-09T12:30:00Z,30.2513,-88.0778,1.9,10.24,1111122 
DISL,ioos:station:DISL:DISL:1,2019-02-09T13:30:00Z,30.2513,-88.0778,1.898,10.17,1111122 
DISL,ioos:station:DISL:DISL:1,2019-02-09T14:30:00Z,30.2513,-88.0778,1.911,10.21,1111122 
DISL,ioos:station:DISL:DISL:1,2019-02-09T15:30:00Z,30.2513,-88.0778,1.938,10.28,1111122 
DISL,ioos:station:DISL:DISL:1,2019-02-09T16:30:00Z,30.2513,-88.0778,1.94,10.37,1111122 
DISL,ioos:station:DISL:DISL:1,2019-02-09T17:30:00Z,30.2513,-88.0778,1.942,10.37,1111122 
DISL,ioos:station:DISL:DISL:1,2019-02-09T18:30:00Z,30.2513,-88.0778,1.937,10.18,1111122 
DISL,ioos:station:DISL:DISL:1,2019-02-09T19:30:00Z,30.2513,-88.0778,1.952,8.53,1111122 
DISL,ioos:station:DISL:DISL:1,2019-02-09T20:30:00Z,30.2513,-88.0778,1.983,8.06,1111122 
DISL,ioos:station:DISL:DISL:1,2019-02-09T21:30:00Z,30.2513,-88.0778,1.995,8.2,1111122 
DISL,ioos:station:DISL:DISL:1,2019-02-09T22:30:00Z,30.2513,-88.0778,2.0,9.72,1111122 
DISL,ioos:station:DISL:DISL:1,2019-02-09T23:30:00Z,30.2513,-88.0778,1.983,8.98,1111122 
DISL,ioos:station:DISL:DISL:1,2019-02-10T00:30:00Z,30.2513,-88.0778,2.15,10.51,1111122 
DISL,ioos:station:DISL:DISL:1,2019-02-10T01:30:00Z,30.2513,-88.0778,2.01,10.55,1111122 
DISL,ioos:station:DISL:DISL:1,2019-02-10T02:30:00Z,30.2513,-88.0778,2.087,10.39,1111122 
DISL,ioos:station:DISL:DISL:1,2019-02-10T03:30:00Z,30.2513,-88.0778,2.045,10.24,1111122 
DISL,ioos:station:DISL:DISL:1,2019-02-10T04:30:00Z,30.2513,-88.0778,2.053,10.27,1111122 
DISL,ioos:station:DISL:DISL:1,2019-02-10T05:30:00Z,30.2513,-88.0778,2.03,10.21,1111122 
DISL,ioos:station:DISL:DISL:1,2019-02-10T06:30:00Z,30.2513,-88.0778,2.028,10.24,1111122 
DISL,ioos:station:DISL:DISL:1,2019-02-10T07:30:00Z,30.2513,-88.0778,2.026,8.99,1111122 
DISL,ioos:station:DISL:DISL:1,2019-02-10T08:30:00Z,30.2513,-88.0778,2.021,6.0,1111122 
DISL,ioos:station:DISL:DISL:1,2019-02-10T09:30:00Z,30.2513,-88.0778,2.065,5.89,1111122 
DISL,ioos:station:DISL:DISL:1,2019-02-10T10:30:00Z,30.2513,-88.0778,2.047,8.75,1111122 
DISL,ioos:station:DISL:DISL:1,2019-02-10T11:30:00Z,30.2513,-88.0778,2.062,9.61,1111122 
DISL,ioos:station:DISL:DISL:1,2019-02-10T12:30:00Z,30.2513,-88.0778,2.047,10.2,1111122 
DISL,ioos:station:DISL:DISL:1,2019-02-10T13:30:00Z,30.2513,-88.0778,2.038,10.22,1111122 
DISL,ioos:station:DISL:DISL:1,2019-02-10T14:30:00Z,30.2513,-88.0778,2.064,10.19,1111122 
DISL,ioos:station:DISL:DISL:1,2019-02-10T15:30:00Z,30.2513,-88.0778,2.077,10.18,1111122 
DISL,ioos:station:DISL:DISL:1,2019-02-10T16:30:00Z,30.2513,-88.0778,2.076,9.98,1111122 
DISL,ioos:station:DISL:DISL:1,2019-02-10T17:30:00Z,30.2513,-88.0778,2.088,9.44,1111122 
DISL,ioos:station:DISL:DISL:1,2019-02-10T18:30:00Z,30.2513,-88.0778,2.084,6.73,1111122 
DISL,ioos:station:DISL:DISL:1,2019-02-10T19:30:00Z,30.2513,-88.0778,2.108,6.93,1111122 
DISL,ioos:station:DISL:DISL:1,2019-02-10T20:30:00Z,30.2513,-88.0778,2.123,6.28,1111122 
DISL,ioos:station:DISL:DISL:1,2019-02-10T21:30:00Z,30.2513,-88.0778,2.127,6.32,1111122 
DISL,ioos:station:DISL:DISL:1,2019-02-10T22:30:00Z,30.2513,-88.0778,2.14,7.95,1111122 
DISL,ioos:station:DISL:DISL:1,2019-02-10T23:30:00Z,30.2513,-88.0778,2.136,6.18,1111122 
DISL,ioos:station:DISL:DISL:1,2019-02-11T00:30:00Z,30.2513,-88.0778,2.16,8.62,1111122 
DISL,ioos:station:DISL:DISL:1,2019-02-11T01:30:00Z,30.2513,-88.0778,2.145,9.39,1111122 
DISL,ioos:station:DISL:DISL:1,2019-02-11T02:30:00Z,30.2513,-88.0778,2.163,9.71,1111122 
DISL,ioos:station:DISL:DISL:1,2019-02-11T03:30:00Z,30.2513,-88.0778,2.166,9.98,1111122 
DISL,ioos:station:DISL:DISL:1,2019-02-11T04:30:00Z,30.2513,-88.0778,2.147,9.7,1111122 
DISL,ioos:station:DISL:DISL:1,2019-02-11T06:00:00Z,30.2513,-88.0778,2.162,9.63,1111122 
DISL,ioos:station:DISL:DISL:1,2019-02-11T06:30:00Z,30.2513,-88.0778,2.163,9.6,1111122 
DISL,ioos:station:DISL:DISL:1,2019-02-11T07:30:00Z,30.2513,-88.0778,2.149,9.46,1111122 
DISL,ioos:station:DISL:DISL:1,2019-02-11T08:30:00Z,30.2513,-88.0778,2.137,9.57,1111122 
DISL,ioos:station:DISL:DISL:1,2019-02-11T09:30:00Z,30.2513,-88.0778,2.138,9.9,1111122 
DISL,ioos:station:DISL:DISL:1,2019-02-11T10:30:00Z,30.2513,-88.0778,2.151,9.94,1111122 
DISL,ioos:station:DISL:DISL:1,2019-02-11T11:30:00Z,30.2513,-88.0778,2.132,9.89,1111122 
DISL,ioos:station:DISL:DISL:1,2019-02-11T12:30:00Z,30.2513,-88.0778,2.137,9.9,1111122 
DISL,ioos:station:DISL:DISL:1,2019-02-11T13:30:00Z,30.2513,-88.0778,2.13,9.88,1111122 
DISL,ioos:station:DISL:DISL:1,2019-02-11T14:30:00Z,30.2513,-88.0778,2.14,9.82,1111122 
DISL,ioos:station:DISL:DISL:1,2019-02-11T15:30:00Z,30.2513,-88.0778,2.152,9.72,1111122 
DISL,ioos:station:DISL:DISL:1,2019-02-11T16:30:00Z,30.2513,-88.0778,2.168,8.32,1111122 
DISL,ioos:station:DISL:DISL:1,2019-02-11T17:30:00Z,30.2513,-88.0778,2.168,7.71,1111122 
DISL,ioos:station:DISL:DISL:1,2019-02-11T18:30:00Z,30.2513,-88.0778,2.201,8.18,1111122 
DISL,ioos:station:DISL:DISL:1,2019-02-11T19:30:00Z,30.2513,-88.0778,2.206,7.77,1111122 
DISL,ioos:station:DISL:DISL:1,2019-02-11T20:30:00Z,30.2513,-88.0778,2.234,8.25,1111122 
DISL,ioos:station:DISL:DISL:1,2019-02-11T21:30:00Z,30.2513,-88.0778,2.241,8.93,1111122 
DISL,ioos:station:DISL:DISL:1,2019-02-11T22:30:00Z,30.2513,-88.0778,2.26,9.24,1111122 
DISL,ioos:station:DISL:DISL:1,2019-02-11T23:30:00Z,30.2513,-88.0778,2.243,10.37,1111122 
DISL,ioos:station:DISL:DISL:1,2019-02-12T00:30:00Z,30.2513,-88.0778,2.236,9.79,1111122 
DISL,ioos:station:DISL:DISL:1,2019-02-12T01:30:00Z,30.2513,-88.0778,2.209,9.9,1111122 
DISL,ioos:station:DISL:DISL:1,2019-02-12T02:30:00Z,30.2513,-88.0778,2.185,9.95,1111122 
DISL,ioos:station:DISL:DISL:1,2019-02-12T03:30:00Z,30.2513,-88.0778,2.162,9.91,1111122 
DISL,ioos:station:DISL:DISL:1,2019-02-12T04:30:00Z,30.2513,-88.0778,2.16,10.04,1111122 
DISL,ioos:station:DISL:DISL:1,2019-02-12T05:30:00Z,30.2513,-88.0778,2.138,10.01,1111122 
DISL,ioos:station:DISL:DISL:1,2019-02-12T06:30:00Z,30.2513,-88.0778,2.141,9.79,1111122 